Weather History for LEAM - November, 2012

Change the Weather History Date:

Thursday, November 1, 2012

  Actual Average Record
Temperature  
Mean Temperature 61 °F -  
Max Temperature 67 °F 64 °F - ()
Min Temperature 55 °F 52 °F - ()
Degree Days  
Heating Degree Days 4    
Growing Degree Days 11 (Base 50)    
Moisture  
Dew Point 58 °F    
Average Humidity 84    
Maximum Humidity 100    
Minimum Humidity 69    
Precipitation  
Precipitation 0.00 in 0.04 in - ()
Sea Level Pressure  
Sea Level Pressure 29.71 in    
Wind  
Wind Speed 6 mph ()    
Max Wind Speed 22 mph    
Max Gust Speed -    
Visibility 6.6 miles    
Events      
T = Trace of Precipitation, MM = Missing Value Source: Averaged Metar Reports

Daily Weather History Graph

Daily Weather History Graph

Search for Another Location

Airport or City:

Trip Planner

Search our weather history database for the weather conditions in past years. The results will help you decide how hot, cold, wet, or windy it might be!

Date:

Astronomy

Nov. 01, 2012 Rise Set
Actual Time 7:33 AM CET 6:12 PM CET
Civil Twilight 7:06 AM CET 6:38 PM CET
Nautical Twilight 6:36 AM CET 7:09 PM CET
Astronomical Twilight 6:05 AM CET 7:39 PM CET
Moon 8:00 PM CET (11/1) 9:50 AM CET (11/1)
Length of Visible Light 11h 32m
Length of Day
10h 38m
Waning Gibbous, 94% of the Moon is Illuminated
Nov 1
Waning Gibbous
Nov 7
Last Quarter
Nov 13
New
Nov 20
First Quarter
Nov 28
Full

Hourly Weather History & Observations

Time (CET) Temp. Dew Point Humidity Pressure Visibility Wind Dir Wind Speed Gust Speed Precip Events Conditions
1:00 AM 58 °F 53 °F 77% 29.62 in - North 3.5 mph - -  
5:00 AM 57.2 °F 55.4 °F 94% 29.62 in 6.2 mi Variable 1.2 mph - N/A   Scattered Clouds
5:30 AM 59.0 °F 53.6 °F 82% 29.62 in 6.2 mi NNW 5.8 mph - N/A   Scattered Clouds
6:00 AM 59.0 °F 53.6 °F 82% 29.62 in 6.2 mi Variable 2.3 mph - N/A   Scattered Clouds
6:30 AM 57.2 °F 53.6 °F 88% 29.62 in 6.2 mi NNW 4.6 mph - N/A   Scattered Clouds
7:00 AM 56 °F 49 °F 69% 29.63 in 19 mi NNW 6.9 mph - -   Partly Cloudy
7:00 AM 57.2 °F 50.0 °F 77% 29.62 in 6.2 mi NNW 6.9 mph - N/A   Scattered Clouds
7:30 AM 59.0 °F 50.0 °F 72% 29.62 in 6.2 mi NW 4.6 mph - N/A   Scattered Clouds
8:00 AM 59.0 °F 51.8 °F 77% 29.65 in 6.2 mi Variable 2.3 mph - N/A   Scattered Clouds
8:30 AM 57.2 °F 51.8 °F 82% 29.65 in 6.2 mi Variable 1.2 mph - N/A   Scattered Clouds
9:00 AM 59.0 °F 53.6 °F 82% 29.68 in 6.2 mi Variable 1.2 mph - N/A   Mostly Cloudy
9:30 AM 60.8 °F 53.6 °F 77% 29.68 in 6.2 mi Calm Calm - N/A   Mostly Cloudy
10:00 AM 62.6 °F 53.6 °F 72% 29.71 in 6.2 mi Calm Calm - N/A   Mostly Cloudy
10:30 AM 64.4 °F 57.2 °F 77% 29.71 in 6.2 mi SSW 4.6 mph - N/A   Mostly Cloudy
11:00 AM 64.4 °F 59.0 °F 83% 29.71 in 6.2 mi SSW 9.2 mph - N/A   Mostly Cloudy
11:30 AM 64.4 °F 59.0 °F 83% 29.71 in 6.2 mi SW 6.9 mph - N/A   Mostly Cloudy
12:00 PM 66.2 °F 60.8 °F 83% 29.71 in 6.2 mi SW 5.8 mph - N/A   Mostly Cloudy
12:30 PM 66.2 °F 60.8 °F 83% 29.71 in 6.2 mi South 6.9 mph - N/A   Scattered Clouds
1:00 PM 66 °F 60 °F 76% 29.73 in 22 mi South 9.2 mph - -   Partly Cloudy
1:00 PM 66.2 °F 62.6 °F 88% 29.71 in 6.2 mi South 9.2 mph - N/A   Scattered Clouds
1:30 PM 68.0 °F 60.8 °F 78% 29.71 in 6.2 mi South 8.1 mph - N/A   Scattered Clouds
2:00 PM 68.0 °F 62.6 °F 83% 29.71 in 6.2 mi South 9.2 mph - N/A   Scattered Clouds
2:30 PM 68.0 °F 62.6 °F 83% 29.68 in 6.2 mi South 11.5 mph - N/A   Partly Cloudy
3:00 PM 66.2 °F 62.6 °F 88% 29.68 in 6.2 mi SSW 11.5 mph - N/A   Partly Cloudy
3:30 PM 68.0 °F 62.6 °F 83% 29.71 in 6.2 mi SSW 13.8 mph - N/A   Partly Cloudy
4:00 PM 68.0 °F 59.0 °F 73% 29.68 in 6.2 mi SW 12.7 mph - N/A   Partly Cloudy
4:30 PM 68.0 °F 59.0 °F 73% 29.71 in 6.2 mi SW 21.9 mph - N/A   Partly Cloudy
5:00 PM 66.2 °F 62.6 °F 88% 29.71 in 6.2 mi SW 18.4 mph - N/A   Partly Cloudy
5:30 PM 66.2 °F 62.6 °F 88% 29.71 in 6.2 mi SW 15.0 mph - N/A   Partly Cloudy
6:00 PM 66.2 °F 62.6 °F 88% 29.71 in 6.2 mi WSW 20.7 mph - N/A   Partly Cloudy
6:30 PM 64.4 °F 62.6 °F 94% 29.74 in 6.2 mi WSW 17.3 mph - N/A   Partly Cloudy
7:00 PM 64 °F 60 °F 82% 29.78 in 9 mi West 10.4 mph - -   Scattered Clouds
7:00 PM 64.4 °F 62.6 °F 94% 29.77 in 6.2 mi West 10.4 mph - N/A   Partly Cloudy
7:30 PM 64.4 °F 62.6 °F 94% 29.77 in 6.2 mi WSW 10.4 mph - N/A   Partly Cloudy
8:00 PM 64.4 °F 62.6 °F 94% 29.77 in 6.2 mi WSW 8.1 mph - N/A   Partly Cloudy
8:30 PM 64.4 °F 62.6 °F 94% 29.80 in 6.2 mi Variable 2.3 mph - N/A   Partly Cloudy
9:00 PM 62.6 °F 62.6 °F 100% 29.80 in 6.2 mi Calm Calm - N/A   Partly Cloudy
9:30 PM 64.4 °F 60.8 °F 88% 29.83 in 6.2 mi Calm Calm - N/A   Partly Cloudy
10:00 PM 62.6 °F 60.8 °F 94% 29.83 in 6.2 mi Variable 2.3 mph - N/A   Partly Cloudy
10:30 PM 62.6 °F 60.8 °F 94% 29.86 in 6.2 mi NE 6.9 mph - N/A   Partly Cloudy